STARLINK-32376, 61707

Orbit data source: Space-Track

STARLINK-32376, 61707 is a payload satellite owned by SpaceX/Seattle (US) in LEO that was launched on Wed, 30 Oct 2024 UTC via an FALCON 9 launch vehicle from the Air Force Eastern Test Range (AFETR). Payload-class satellites include a variety of spacecraft equipped with specific instruments for various scientific and technological missions. These include communications satellites like Starlink; space stations such as the ISS; scientific satellites like the Hubble; Earth observation satellites from companies like Planet Labs, Umbra, and HawkEye 360; GPS; miniature CubeSats for education and research; and military/defense satellites.

Loading next visibility...
Identifier
61707, 2024-196A
Orbit
LEO
Last TLE update
15 hours ago
Origin
Manufacturer
SpaceX/Seattle
Mission
Operational Commercial Communications
Bus & Motor
STARLINK V2M, Unknown motor
Mass
730 kg wet, ~700 kg dry
Launch date (UTC)
2024-10-30 (8 months ago)
Launch vehicle
FALCON 9
Launch site
Air Force Eastern Test Range (AFETR)
Object type
Payload
Rocket body
Debris
Shape & HBR
Box + 2 Pan, 29 m
Radar Cross Section
36.964 m², Large (>1 m²)

Expand to show TLE details & history

TLE from 15 hours ago
0 STARLINK-32376
1 61707U 24196A   25181.72108782  .00001869  00000-0  75212-4 0  9990
2 61707  53.1591 191.3888 0000989  84.7148 275.3965 15.30195357 38594
Epoch: 2025-06-30T17:18Z
TLE epoch observation values (Epoch: 2025-06-30T17:18:21.987Z)
Latitude
-0.00008°
Longitude
12.7703°
Altitude
476.065 km
Speed
7.629 km/s
True Right ascension
12h 45m 33s
True Declination
0° 00' 00"
Sunlit
Object was in daylight at epoch
Visualization orbit readout
Latitude
-52.20928°
Longitude
-64.1154°
Altitude
493.999 km
Speed
7.617 km/s
Apparent Right ascension
07h 58m 27s
Apparent Declination
-46° 12' 30"
Sunlit
Object is in daylight
Visualization observer readout
Local Sidereal Time
20:16:04
Azimuth
154.407° SSE
Elevation
-82.936°
Doppler factor
1
Orbital elements
Apogee altitude
476.163 km
Perigee altitude
474.808 km
Semi-major axis
6,853.623 km
Eccentricity
0.0001
Inclination
53.1591°
RAAN
191.3888°
Arg. of periapsis
84.7148°
True anomaly
Unknown
Mean anomaly
275.3965°
Eccentric anomaly
Unknown
Mean motion
3.82528 °/min
Orbital period
94.11 mins
BSTAR
0.000075212
Loading maneuver chart data...
Loading SW <> Apogee altitude chart data...
Loading historical data...
Loading historical data...
Loading historical data...
Loading historical data...
Loading historical data...
Loading historical data...
Loading historical data...

STARLINK-32376 Visibility forecast

Observer location: undefined°, undefined°

Span
Click to sort rows by Start time (UTC) header in descending order
Start Az.
Max El. time (UTC)
Max El. Az.
Max El.
End time (UTC)
End Az.
6 mins2025-07-01 09:26:55.325Z326.914° NNW2025-07-01 09:29:55.325Z30.377° NE29.443°2025-07-01 09:32:55.325Z96.057° ESE
5 mins2025-07-01 11:05:55.325Z275.617° WNW2025-07-01 11:07:55.325Z224.362° SW26.117°2025-07-01 11:10:55.325Z167.447° S
4 mins2025-07-02 02:23:55.325Z177.415° S2025-07-02 02:25:55.325Z122.298° SE26.519°2025-07-02 02:27:55.325Z78.268° E
4 mins2025-07-02 04:01:55.325Z282.055° WNW2025-07-02 04:03:55.325Z344.272° N28.233°2025-07-02 04:05:55.325Z27.123° NE
|